Time,TemperatureF,DewpointF,PressureIn,WindDirection,WindDirectionDegrees,WindSpeedMPH,WindSpeedGustMPH,Humidity,HourlyPrecipIn,Conditions,Clouds,dailyrainin,SoftwareType,DateUTC
2013-04-17 00:02:00,19.0,19.0,-100.00,SE,130,11.0,21.0,99,0.01,,,-99.99,,2013-04-17 06:02:00,
2013-04-17 00:12:00,19.0,19.0,-100.00,ESE,120,12.0,21.0,99,0.01,,,-99.99,,2013-04-17 06:12:00,
2013-04-17 00:22:00,19.0,19.0,-100.00,ESE,120,12.0,21.0,99,0.00,,,-99.99,,2013-04-17 06:22:00,
2013-04-17 00:32:00,18.0,18.0,-100.00,SE,130,9.0,17.0,99,0.00,,,-99.99,,2013-04-17 06:32:00,
2013-04-17 00:42:00,18.0,18.0,-100.00,East,100,9.0,17.0,99,0.00,,,-99.99,,2013-04-17 06:42:00,
2013-04-17 00:52:00,18.0,18.0,-100.00,East,95,11.0,18.0,99,0.01,,,-99.99,,2013-04-17 06:52:00,
2013-04-17 01:02:00,18.0,18.0,-100.00,ESE,110,11.0,16.0,99,0.00,,,-99.99,,2013-04-17 07:02:00,
2013-04-17 01:12:00,18.0,18.0,-100.00,East,100,12.0,19.0,99,0.01,,,-99.99,,2013-04-17 07:12:00,
2013-04-17 01:22:00,18.0,18.0,-100.00,ESE,110,10.0,18.0,99,0.01,,,-99.99,,2013-04-17 07:22:00,
2013-04-17 01:32:00,18.0,18.0,-100.00,ESE,110,13.0,16.0,99,0.00,,,-99.99,,2013-04-17 07:32:00,
2013-04-17 01:42:00,18.0,18.0,-100.00,East,95,12.0,22.0,99,0.01,,,-99.99,,2013-04-17 07:42:00,
2013-04-17 01:52:00,18.0,18.0,-100.00,East,85,11.0,20.0,99,0.00,,,-99.99,,2013-04-17 07:52:00,
2013-04-17 02:02:00,18.0,18.0,-100.00,East,85,16.0,21.0,99,0.00,,,-99.99,,2013-04-17 08:02:00,
2013-04-17 02:12:00,18.0,18.0,-100.00,East,85,14.0,19.0,99,0.00,,,-99.99,,2013-04-17 08:12:00,
2013-04-17 02:22:00,18.0,18.0,-100.00,East,85,15.0,19.0,99,0.00,,,-99.99,,2013-04-17 08:22:00,
2013-04-17 02:32:00,18.0,18.0,-100.00,East,90,14.0,21.0,99,0.01,,,-99.99,,2013-04-17 08:32:00,
2013-04-17 02:42:00,18.0,18.0,-100.00,East,85,14.0,19.0,99,0.01,,,-99.99,,2013-04-17 08:42:00,
2013-04-17 02:52:00,18.0,18.0,-100.00,East,90,15.0,19.0,99,0.00,,,-99.99,,2013-04-17 08:52:00,
2013-04-17 03:02:00,18.0,18.0,-100.00,East,90,14.0,19.0,99,0.00,,,-99.99,,2013-04-17 09:02:00,
2013-04-17 03:12:00,18.0,18.0,-100.00,East,85,12.0,20.0,99,0.00,,,-99.99,,2013-04-17 09:12:00,
2013-04-17 03:22:00,18.0,18.0,-100.00,East,85,14.0,19.0,99,0.00,,,-99.99,,2013-04-17 09:22:00,
2013-04-17 03:33:00,15.0,15.0,-100.00,East,80,19.0,23.0,99,0.00,,,-99.99,,2013-04-17 09:33:00,
2013-04-17 03:42:00,14.0,14.0,-100.00,East,85,18.0,24.0,99,0.00,,,-99.99,,2013-04-17 09:42:00,
2013-04-17 03:52:00,13.0,13.0,-100.00,East,85,21.0,25.0,99,0.00,,,-99.99,,2013-04-17 09:52:00,
2013-04-17 04:02:00,13.0,13.0,-100.00,East,80,19.0,24.0,99,0.00,,,-99.99,,2013-04-17 10:02:00,
2013-04-17 04:12:00,13.0,13.0,-100.00,East,85,19.0,24.0,99,0.01,,,-99.99,,2013-04-17 10:12:00,
2013-04-17 04:23:00,13.0,13.0,-100.00,East,80,21.0,24.0,99,0.01,,,-99.99,,2013-04-17 10:23:00,
2013-04-17 04:32:00,13.0,13.0,-100.00,East,85,19.0,22.0,99,0.00,,,-99.99,,2013-04-17 10:32:00,
2013-04-17 04:42:00,13.0,12.0,-100.00,East,85,19.0,24.0,99,0.01,,,-99.99,,2013-04-17 10:42:00,
2013-04-17 04:52:00,13.0,13.0,-100.00,East,90,17.0,21.0,99,0.01,,,-99.99,,2013-04-17 10:52:00,
2013-04-17 05:02:00,13.0,12.0,-100.00,East,100,14.0,20.0,99,0.01,,,-99.99,,2013-04-17 11:02:00,
2013-04-17 05:22:00,12.0,12.0,-100.00,East,95,14.0,20.0,99,0.01,,,-99.99,,2013-04-17 11:22:00,
2013-04-17 05:32:00,12.0,12.0,-100.00,East,95,18.0,23.0,99,0.03,,,-99.99,,2013-04-17 11:32:00,
2013-04-17 05:42:00,12.0,12.0,-100.00,East,90,14.0,22.0,99,0.01,,,-99.99,,2013-04-17 11:42:00,
2013-04-17 05:52:00,12.0,12.0,-100.00,East,90,17.0,22.0,99,0.03,,,-99.99,,2013-04-17 11:52:00,
2013-04-17 06:02:00,12.0,12.0,-100.00,East,90,18.0,24.0,99,0.01,,,-99.99,,2013-04-17 12:02:00,
2013-04-17 06:12:00,12.0,12.0,-100.00,East,95,13.0,21.0,99,0.01,,,-99.99,,2013-04-17 12:12:00,
2013-04-17 06:22:00,12.0,12.0,-100.00,East,90,17.0,22.0,99,0.01,,,-99.99,,2013-04-17 12:22:00,
2013-04-17 06:32:00,12.0,12.0,-100.00,East,90,19.0,22.0,99,0.06,,,-99.99,,2013-04-17 12:32:00,
2013-04-17 06:42:00,12.0,12.0,-100.00,East,90,18.0,22.0,99,0.04,,,-99.99,,2013-04-17 12:42:00,
2013-04-17 06:52:00,11.0,11.0,-100.00,East,90,19.0,22.0,99,0.06,,,-99.99,,2013-04-17 12:52:00,
2013-04-17 07:02:00,11.0,11.0,-100.00,East,85,19.0,23.0,99,0.04,,,-99.99,,2013-04-17 13:02:00,
2013-04-17 07:12:00,11.0,11.0,-100.00,East,90,19.0,24.0,99,0.06,,,-99.99,,2013-04-17 13:12:00,
2013-04-17 07:22:00,12.0,12.0,-100.00,East,85,16.0,22.0,99,0.07,,,-99.99,,2013-04-17 13:22:00,
2013-04-17 07:32:00,11.0,11.0,-100.00,East,90,18.0,23.0,99,0.07,,,-99.99,,2013-04-17 13:32:00,
2013-04-17 07:52:00,11.0,11.0,-100.00,East,90,15.0,24.0,99,0.03,,,-99.99,,2013-04-17 13:52:00,
2013-04-17 08:02:00,12.0,12.0,-100.00,East,90,17.0,21.0,99,0.07,,,-99.99,,2013-04-17 14:02:00,
2013-04-17 08:12:00,12.0,12.0,-100.00,East,95,16.0,21.0,99,0.06,,,-99.99,,2013-04-17 14:12:00,
2013-04-17 08:22:00,12.0,12.0,-100.00,East,90,16.0,21.0,99,0.06,,,-99.99,,2013-04-17 14:22:00,
2013-04-17 08:32:00,12.0,12.0,-100.00,East,85,16.0,21.0,99,0.04,,,-99.99,,2013-04-17 14:32:00,
2013-04-17 08:42:00,12.0,12.0,-100.00,East,90,15.0,21.0,99,0.03,,,-99.99,,2013-04-17 14:42:00,
2013-04-17 08:52:00,12.0,12.0,-100.00,East,90,19.0,22.0,99,0.01,,,-99.99,,2013-04-17 14:52:00,
2013-04-17 09:02:00,13.0,12.0,-100.00,East,90,19.0,24.0,99,0.04,,,-99.99,,2013-04-17 15:02:00,
2013-04-17 09:12:00,12.0,12.0,-100.00,East,85,18.0,21.0,99,0.03,,,-99.99,,2013-04-17 15:12:00,
2013-04-17 09:22:00,12.0,12.0,-100.00,East,80,20.0,23.0,99,0.03,,,-99.99,,2013-04-17 15:22:00,
2013-04-17 09:33:00,12.0,12.0,-100.00,East,85,20.0,23.0,99,0.03,,,-99.99,,2013-04-17 15:33:00,
2013-04-17 09:42:00,12.0,12.0,-100.00,East,85,18.0,24.0,99,0.01,,,-99.99,,2013-04-17 15:42:00,
2013-04-17 09:52:00,13.0,12.0,-100.00,East,90,17.0,21.0,99,0.04,,,-99.99,,2013-04-17 15:52:00,
2013-04-17 10:03:00,13.0,13.0,-100.00,East,85,16.0,21.0,99,0.07,,,-99.99,,2013-04-17 16:03:00,
2013-04-17 10:22:00,13.0,13.0,-100.00,East,85,15.0,21.0,99,0.03,,,-99.99,,2013-04-17 16:22:00,
2013-04-17 10:32:00,13.0,13.0,-100.00,East,85,16.0,21.0,99,0.01,,,-99.99,,2013-04-17 16:32:00,
2013-04-17 10:42:00,13.0,13.0,-100.00,East,80,16.0,21.0,99,0.01,,,-99.99,,2013-04-17 16:42:00,
2013-04-17 10:52:00,13.0,13.0,-100.00,East,85,16.0,20.0,99,0.10,,,-99.99,,2013-04-17 16:52:00,
2013-04-17 11:02:00,13.0,13.0,-100.00,East,85,17.0,21.0,99,0.06,,,-99.99,,2013-04-17 17:02:00,
2013-04-17 11:12:00,13.0,13.0,-100.00,East,85,17.0,21.0,99,0.07,,,-99.99,,2013-04-17 17:12:00,
2013-04-17 11:22:00,13.0,13.0,-100.00,East,90,17.0,20.0,99,0.03,,,-99.99,,2013-04-17 17:22:00,
2013-04-17 11:33:00,13.0,13.0,-100.00,East,85,19.0,22.0,99,0.06,,,-99.99,,2013-04-17 17:33:00,
2013-04-17 11:42:00,13.0,13.0,-100.00,East,85,19.0,23.0,99,0.07,,,-99.99,,2013-04-17 17:42:00,
2013-04-17 11:52:00,13.0,13.0,-100.00,East,90,19.0,22.0,99,0.03,,,-99.99,,2013-04-17 17:52:00,
2013-04-17 12:02:00,13.0,13.0,-100.00,ENE,75,18.0,22.0,99,0.03,,,-99.99,,2013-04-17 18:02:00,
2013-04-17 12:12:00,13.0,13.0,-100.00,East,85,17.0,22.0,99,0.03,,,-99.99,,2013-04-17 18:12:00,
2013-04-17 12:22:00,13.0,13.0,-100.00,ENE,75,19.0,24.0,99,0.01,,,-99.99,,2013-04-17 18:22:00,
2013-04-17 12:32:00,13.0,13.0,-100.00,ENE,75,18.0,27.0,99,0.03,,,-99.99,,2013-04-17 18:32:00,
2013-04-17 12:42:00,13.0,13.0,-100.00,East,80,18.0,27.0,99,0.01,,,-99.99,,2013-04-17 18:42:00,
2013-04-17 12:52:00,13.0,13.0,-100.00,ENE,65,17.0,22.0,99,0.03,,,-99.99,,2013-04-17 18:52:00,
2013-04-17 13:02:00,13.0,13.0,-100.00,East,90,16.0,20.0,99,0.01,,,-99.99,,2013-04-17 19:02:00,
2013-04-17 13:12:00,13.0,13.0,-100.00,East,80,14.0,19.0,99,0.01,,,-99.99,,2013-04-17 19:12:00,
2013-04-17 13:32:00,13.0,13.0,-100.00,ENE,75,16.0,20.0,99,0.01,,,-99.99,,2013-04-17 19:32:00,
2013-04-17 13:42:00,14.0,14.0,-100.00,East,85,16.0,19.0,99,0.00,,,-99.99,,2013-04-17 19:42:00,
2013-04-17 13:52:00,14.0,14.0,-100.00,East,80,15.0,21.0,99,0.00,,,-99.99,,2013-04-17 19:52:00,
2013-04-17 14:02:00,14.0,14.0,-100.00,East,80,14.0,20.0,99,0.03,,,-99.99,,2013-04-17 20:02:00,
2013-04-17 14:22:00,14.0,14.0,-100.00,ENE,65,16.0,20.0,99,0.00,,,-99.99,,2013-04-17 20:22:00,
2013-04-17 14:32:00,14.0,14.0,-100.00,East,80,17.0,21.0,99,0.01,,,-99.99,,2013-04-17 20:32:00,
2013-04-17 14:42:00,14.0,14.0,-100.00,East,80,14.0,21.0,99,0.01,,,-99.99,,2013-04-17 20:42:00,
2013-04-17 14:52:00,14.0,14.0,-100.00,East,80,15.0,21.0,99,0.00,,,-99.99,,2013-04-17 20:52:00,
2013-04-17 15:02:00,14.0,14.0,-100.00,East,95,15.0,19.0,99,0.00,,,-99.99,,2013-04-17 21:02:00,
2013-04-17 15:12:00,13.0,13.0,-100.00,East,80,19.0,21.0,99,0.00,,,-99.99,,2013-04-17 21:12:00,
2013-04-17 15:22:00,14.0,14.0,-100.00,East,90,12.0,20.0,99,0.00,,,-99.99,,2013-04-17 21:22:00,
2013-04-17 15:33:00,14.0,14.0,-100.00,East,85,12.0,14.0,99,0.00,,,-99.99,,2013-04-17 21:33:00,
2013-04-17 15:42:00,14.0,14.0,-100.00,East,95,11.0,14.0,99,0.11,,,-99.99,,2013-04-17 21:42:00,
2013-04-17 15:53:00,14.0,14.0,-100.00,ENE,70,12.0,14.0,99,0.04,,,-99.99,,2013-04-17 21:53:00,
2013-04-17 16:02:00,14.0,14.0,-100.00,NE,55,14.0,16.0,99,0.01,,,-99.99,,2013-04-17 22:02:00,
2013-04-17 16:12:00,14.0,14.0,-100.00,ENE,70,13.0,18.0,99,0.01,,,-99.99,,2013-04-17 22:12:00,
2013-04-17 16:22:00,14.0,14.0,-100.00,NE,55,11.0,18.0,99,0.00,,,-99.99,,2013-04-17 22:22:00,
2013-04-17 16:33:00,14.0,14.0,-100.00,NE,45,12.0,15.0,99,0.01,,,-99.99,,2013-04-17 22:33:00,
2013-04-17 16:42:00,14.0,14.0,-100.00,NE,45,12.0,17.0,99,0.00,,,-99.99,,2013-04-17 22:42:00,
2013-04-17 16:52:00,14.0,14.0,-100.00,NE,50,11.0,16.0,99,0.00,,,-99.99,,2013-04-17 22:52:00,
2013-04-17 17:02:00,13.0,13.0,-100.00,NE,55,12.0,15.0,99,0.00,,,-99.99,,2013-04-17 23:02:00,
2013-04-17 17:12:00,13.0,13.0,-100.00,NE,45,11.0,15.0,99,0.00,,,-99.99,,2013-04-17 23:12:00,
2013-04-17 17:22:00,14.0,14.0,-100.00,NE,40,9.0,12.0,99,0.00,,,-99.99,,2013-04-17 23:22:00,
2013-04-17 17:32:00,14.0,14.0,-100.00,NNE,30,7.0,13.0,99,0.01,,,-99.99,,2013-04-17 23:32:00,
2013-04-17 17:42:00,15.0,14.0,-100.00,NNE,30,6.0,9.0,98,0.01,,,-99.99,,2013-04-17 23:42:00,
2013-04-17 17:52:00,15.0,15.0,-100.00,North,0,4.0,9.0,98,0.03,,,-99.99,,2013-04-17 23:52:00,
2013-04-17 18:02:00,14.0,14.0,-100.00,North,0,7.0,12.0,98,0.04,,,-99.99,,2013-04-18 00:02:00,
2013-04-17 18:12:00,13.0,13.0,-100.00,North,0,7.0,12.0,98,0.01,,,-99.99,,2013-04-18 00:12:00,
2013-04-17 18:22:00,13.0,12.0,-100.00,North,0,7.0,12.0,98,0.03,,,-99.99,,2013-04-18 00:22:00,
2013-04-17 18:32:00,13.0,12.0,-100.00,North,0,7.0,12.0,98,0.00,,,-99.99,,2013-04-18 00:32:00,
2013-04-17 18:42:00,13.0,12.0,-100.00,North,0,6.0,11.0,98,0.03,,,-99.99,,2013-04-18 00:42:00,
2013-04-17 18:52:00,12.0,12.0,-100.00,North,355,7.0,12.0,99,0.00,,,-99.99,,2013-04-18 00:52:00,
2013-04-17 19:02:00,11.0,11.0,-100.00,North,0,7.0,12.0,99,0.00,,,-99.99,,2013-04-18 01:02:00,
2013-04-17 19:12:00,11.0,11.0,-100.00,North,0,7.0,12.0,99,0.03,,,-99.99,,2013-04-18 01:12:00,
2013-04-17 19:22:00,11.0,11.0,-100.00,North,0,7.0,11.0,99,0.01,,,-99.99,,2013-04-18 01:22:00,
2013-04-17 19:32:00,11.0,11.0,-100.00,NNW,345,7.0,10.0,99,0.03,,,-99.99,,2013-04-18 01:32:00,
2013-04-17 19:42:00,11.0,11.0,-100.00,NW,315,6.0,8.0,99,0.01,,,-99.99,,2013-04-18 01:42:00,
2013-04-17 19:52:00,10.0,10.0,-100.00,NW,320,5.0,7.0,99,0.01,,,-99.99,,2013-04-18 01:52:00,
2013-04-17 20:02:00,10.0,10.0,-100.00,NW,305,4.0,8.0,99,0.01,,,-99.99,,2013-04-18 02:02:00,
2013-04-17 20:12:00,10.0,10.0,-100.00,NW,305,3.0,6.0,99,0.01,,,-99.99,,2013-04-18 02:12:00,
2013-04-17 20:22:00,9.0,9.0,-100.00,WNW,300,4.0,5.0,99,0.01,,,-99.99,,2013-04-18 02:22:00,
2013-04-17 20:32:00,9.0,9.0,-100.00,WNW,295,3.0,4.0,99,0.01,,,-99.99,,2013-04-18 02:32:00,
2013-04-17 20:42:00,9.0,9.0,-100.00,WNW,295,3.0,4.0,99,0.01,,,-99.99,,2013-04-18 02:42:00,
2013-04-17 20:52:00,9.0,9.0,-100.00,WNW,295,3.0,4.0,99,0.01,,,-99.99,,2013-04-18 02:52:00,
2013-04-17 21:02:00,9.0,9.0,-100.00,WNW,295,2.0,4.0,99,0.00,,,-99.99,,2013-04-18 03:02:00,
2013-04-17 21:12:00,9.0,9.0,-100.00,WNW,290,1.0,4.0,99,0.00,,,-99.99,,2013-04-18 03:12:00,
2013-04-17 21:22:00,9.0,9.0,-100.00,West,280,2.0,3.0,99,0.00,,,-99.99,,2013-04-18 03:22:00,
2013-04-17 21:33:00,9.0,9.0,-100.00,West,280,1.0,2.0,99,0.00,,,-99.99,,2013-04-18 03:33:00,
2013-04-17 21:43:00,9.0,9.0,-100.00,West,280,1.0,2.0,99,0.00,,,-99.99,,2013-04-18 03:43:00,
2013-04-17 21:53:00,9.0,9.0,-100.00,WNW,285,1.0,2.0,99,0.00,,,-99.99,,2013-04-18 03:53:00,
2013-04-17 22:03:00,9.0,9.0,-100.00,WNW,285,2.0,2.0,99,0.00,,,-99.99,,2013-04-18 04:03:00,
2013-04-17 22:13:00,9.0,9.0,-100.00,West,280,3.0,3.0,99,0.00,,,-99.99,,2013-04-18 04:13:00,
2013-04-17 22:23:00,9.0,9.0,-100.00,WNW,290,2.0,3.0,99,0.00,,,-99.99,,2013-04-18 04:23:00,
2013-04-17 22:33:00,9.0,9.0,-100.00,West,270,4.0,4.0,99,0.00,,,-99.99,,2013-04-18 04:33:00,
2013-04-17 22:43:00,9.0,9.0,-100.00,West,280,2.0,4.0,99,0.00,,,-99.99,,2013-04-18 04:43:00,
2013-04-17 22:53:00,9.0,9.0,-100.00,West,270,4.0,5.0,99,0.00,,,-99.99,,2013-04-18 04:53:00,
2013-04-17 23:02:00,9.0,9.0,-100.00,WNW,290,4.0,5.0,99,0.00,,,-99.99,,2013-04-18 05:02:00,
2013-04-17 23:12:00,8.0,8.0,-100.00,West,280,4.0,6.0,99,0.00,,,-99.99,,2013-04-18 05:12:00,
2013-04-17 23:22:00,8.0,8.0,-100.00,WNW,290,6.0,6.0,99,0.00,,,-99.99,,2013-04-18 05:22:00,
2013-04-17 23:33:00,8.0,8.0,-100.00,WNW,300,5.0,6.0,99,0.00,,,-99.99,,2013-04-18 05:33:00,
2013-04-17 23:42:00,7.0,7.0,-100.00,WNW,300,5.0,6.0,99,0.00,,,-99.99,,2013-04-18 05:42:00,
2013-04-17 23:52:00,7.0,7.0,-100.00,WNW,285,4.0,5.0,99,0.00,,,-99.99,,2013-04-18 05:52:00,